ATLAS 5 CENTAUR DEB, 44007

Orbit data source: Space-Track

ATLAS 5 CENTAUR DEB, 44007 is space debris in HEO originally from a launch on Wed, 17 Sep 2014 UTC launched from the Air Force Eastern Test Range (AFETR). Debris objects in space refer to the collection of defunct objects orbiting the Earth. Examples of debris include non-operational satellites, rocket bodies, and fragments generated from explosions, collisions, or faulty payload assembly.

Loading next visibility...
Identifier
44007, 2014-055BN
Orbit
HEO
Country
Flag of USUS
Related business
Flag of USUnited Launch Alliance/Lockheed Martin (US)
Manufacturer
Unknown
Mission
Spacecraft
Bus & Motor
Unknown
Mass
Unknown
Launch date (UTC)
2014-09-17 (12 years ago)
Launch vehicle
Unknown
Launch site
Air Force Eastern Test Range (AFETR)
Object type
Payload
Rocket body
Debris
Shape & HBR
Unknown shape, 1.1 m
Radar Cross Section
Medium (>0.1 m² and <1 m²)

Expand to show TLE details & history
Last TLE update: 1 week ago

TLE from 1 week ago
0 ATLAS 5 CENTAUR DEB
1 44007U 14055BN  26229.30552491 -.00000055  00000-0  00000-0 0  9991
2 44007  19.1343 172.4336 4858858 114.2014 303.1104  1.76242772 50716
Epoch: 2026-08-17T07:19Z
TLE epoch observation values (Epoch: 2026-08-17T07:19:57.352Z)
Latitude
0.00003°
Longitude
96.66118°
Altitude
21,278.146 km
Speed
3.88 km/s
True Right ascension
11h 29m 21s
True Declination
0° 00' 00"
Sunlit
Object was in daylight at epoch
Visualization orbit readout
Latitude
Unknown
Longitude
Unknown
Altitude
Unknown
Speed
Unknown
Apparent Right ascension
Unknown
Apparent Declination
Unknown
Sunlit
N/A
Visualization observer readout
Local Sidereal Time
15:52:55
Azimuth
Unknown
Elevation
Unknown
Doppler factor
Unknown
Orbital elements
Apogee altitude
36,642.351 km
Perigee altitude
8,506.886 km
Semi-major axis
28,952.755 km
Eccentricity
0.48589
Inclination
19.1343°
RAAN
172.4336°
Arg. of periapsis
114.2014°
True anomaly
245.75555°
Mean anomaly
303.1104°
Eccentric anomaly
275.39449°
Mean motion
0.44056 °/min
Orbital period
817.14 mins
BSTAR
0
Loading maneuver chart data...
Computing Atmospheric mass density...

Documentation

Showing up to 5 results
|